sat.trackr.live / text

‹ back to catalog

STARLINK-2726

NORAD 48662 · 2021-044AA

PAYLOAD ACTIVE UNKNOWN

§ Identity

Operator
Country
US
Launch date
2021-05-26
Launch site
AFETR
Launch vehicle
Mass (kg)
RCS (m²)

Purposes: comms

External: N2YO · Heavens-Above · Gunter

§ Orbital elements

Epoch: 2026-09-19T18:45:31.281984Z

Period
94.01 min
Inclination
53.1583°
Eccentricity
0.0001369
Mean motion
15.31706719 rev/d
Perigee alt
469.8 km
Apogee alt
471.7 km
Semi-major
6,848.9 km
B*
-1.5553e-5
RAAN
292.1472°
Arg perigee
84.0281°
Mean anomaly
276.0877°
Rev number
29,353

§ Raw data

STARLINK-27261 48662U 21044AA  26262.78161206 -.00000848  00000+0 -15553-4 0  99902 48662  53.1583 292.1472 0001369  84.0281 276.0877 15.31706719293531

JSON: /api/v1/satellites/48662 · /tle

For live sub-satellite position, see the globe view (requires WebGL).

§ Visibility from observer

Set your observer location to see the next 7 days of passes ≥ 10°. The values pass through the URL so the page stays shareable.

No JS? Fill the form by hand. The geolocation button needs JavaScript.